Location: Wiesbaden
(50.0830°N, 8.2500°E)
Time: 21:45:06
(UTC+02:00)

ISS - Pass Details

Date: 13 September 2019
Orbit: 411 x 421 km, 51.6° (Epoch: 19 September)

Event Time Altitude Azimuth Distance (km) Brightness Sun altitude
Exits shadow 05:30:39 31° 246° (WSW) 755 -3.1 -14.4°
Maximum altitude 05:31:31 37° 210° (SSW) 658 -3.2 -14.3°
Drops below altitude 10° 05:34:38 10° 141° (SE) 1,489 -0.8 -13.9°
Sets 05:36:49 0° 133° (SE) 2,351 0.4 -13.5°
